Time,TemperatureF,DewpointF,PressureIn,WindDirection,WindDirectionDegrees,WindSpeedMPH,WindSpeedGustMPH,Humidity,HourlyPrecipIn,Conditions,Clouds,dailyrainin,SoftwareType,DateUTC
2013-01-09 00:00:00,27.2,23.0,30.32,WNW,292,2.1,4.2,82,0.00,,,0.00,Rainwise IP-100,2013-01-09 05:00:00,
2013-01-09 00:01:00,27.3,23.0,30.32,WNW,292,2.1,4.2,82,0.00,,,0.00,Rainwise IP-100,2013-01-09 05:01:00,
2013-01-09 00:02:00,27.4,23.0,30.32,WSW,247,1.6,3.3,82,0.00,,,0.00,Rainwise IP-100,2013-01-09 05:02:00,
2013-01-09 00:07:00,27.6,23.0,30.32,WNW,292,1.4,3.5,82,0.00,,,0.00,Rainwise IP-100,2013-01-09 05:07:00,
2013-01-09 00:12:00,27.7,23.0,30.33,WNW,292,0.0,3.0,82,0.00,,,0.00,Rainwise IP-100,2013-01-09 05:12:00,
2013-01-09 00:17:00,27.7,23.0,30.33,SW,225,0.0,2.1,82,0.00,,,0.00,Rainwise IP-100,2013-01-09 05:17:00,
2013-01-09 00:22:00,27.5,23.0,30.33,South,180,0.0,2.3,82,0.00,,,0.00,Rainwise IP-100,2013-01-09 05:22:00,
2013-01-09 00:27:00,27.3,23.0,30.33,WSW,247,0.0,0.0,82,0.00,,,0.00,Rainwise IP-100,2013-01-09 05:27:00,
2013-01-09 00:32:00,26.9,23.0,30.33,West,270,0.0,1.9,83,0.00,,,0.00,Rainwise IP-100,2013-01-09 05:32:00,
2013-01-09 00:37:00,26.9,24.0,30.34,WNW,292,1.9,3.3,84,0.00,,,0.00,Rainwise IP-100,2013-01-09 05:37:00,
2013-01-09 00:42:00,27.0,24.0,30.33,West,270,1.2,2.3,84,0.00,,,0.00,Rainwise IP-100,2013-01-09 05:42:00,
2013-01-09 00:47:00,27.1,24.0,30.34,WSW,247,1.2,3.0,84,0.00,,,0.00,Rainwise IP-100,2013-01-09 05:47:00,
2013-01-09 00:52:00,27.1,24.0,30.34,WNW,292,1.2,2.6,84,0.00,,,0.00,Rainwise IP-100,2013-01-09 05:52:00,
2013-01-09 00:57:00,27.1,24.0,30.34,WSW,247,0.0,2.3,84,0.00,,,0.00,Rainwise IP-100,2013-01-09 05:57:00,
2013-01-09 01:02:00,27.0,24.0,30.34,WSW,247,0.0,5.4,84,0.00,,,0.00,Rainwise IP-100,2013-01-09 06:02:00,
2013-01-09 01:07:00,26.9,24.0,30.34,WNW,292,1.9,5.1,84,0.00,,,0.00,Rainwise IP-100,2013-01-09 06:07:00,
2013-01-09 01:12:00,26.7,24.0,30.34,NW,315,2.3,3.5,84,0.00,,,0.00,Rainwise IP-100,2013-01-09 06:12:00,
2013-01-09 01:17:00,26.6,24.0,30.35,WNW,292,4.2,4.2,85,0.00,,,0.00,Rainwise IP-100,2013-01-09 06:17:00,
2013-01-09 01:22:00,26.8,24.0,30.35,NW,315,4.4,5.1,85,0.00,,,0.00,Rainwise IP-100,2013-01-09 06:22:00,
2013-01-09 01:27:00,27.2,24.0,30.36,WNW,292,2.1,7.0,85,0.00,,,0.00,Rainwise IP-100,2013-01-09 06:27:00,
2013-01-09 01:32:00,27.5,24.0,30.35,WNW,292,5.1,7.7,84,0.00,,,0.00,Rainwise IP-100,2013-01-09 06:32:00,
2013-01-09 01:37:00,27.7,24.0,30.36,WSW,247,1.2,8.4,84,0.00,,,0.00,Rainwise IP-100,2013-01-09 06:37:00,
2013-01-09 01:42:00,27.7,23.0,30.36,WNW,292,1.9,4.7,83,0.00,,,0.00,Rainwise IP-100,2013-01-09 06:42:00,
2013-01-09 01:47:00,27.6,23.0,30.36,West,270,0.0,3.3,83,0.00,,,0.00,Rainwise IP-100,2013-01-09 06:47:00,
2013-01-09 01:52:00,27.4,24.0,30.36,West,270,0.0,1.6,84,0.00,,,0.00,Rainwise IP-100,2013-01-09 06:52:00,
2013-01-09 01:57:00,27.1,24.0,30.36,West,270,1.4,1.9,84,0.00,,,0.00,Rainwise IP-100,2013-01-09 06:57:00,
2013-01-09 02:02:00,26.9,24.0,30.36,West,270,1.4,2.6,84,0.00,,,0.00,Rainwise IP-100,2013-01-09 07:02:00,
2013-01-09 02:07:00,26.7,24.0,30.36,WSW,247,1.2,1.9,84,0.00,,,0.00,Rainwise IP-100,2013-01-09 07:07:00,
2013-01-09 02:12:00,26.6,24.0,30.36,WNW,292,2.1,4.2,85,0.00,,,0.00,Rainwise IP-100,2013-01-09 07:12:00,
2013-01-09 02:17:00,26.5,24.0,30.36,WNW,292,1.4,3.0,85,0.00,,,0.00,Rainwise IP-100,2013-01-09 07:17:00,
2013-01-09 02:22:00,26.4,23.0,30.36,WNW,292,2.3,3.3,85,0.00,,,0.00,Rainwise IP-100,2013-01-09 07:22:00,
2013-01-09 02:27:00,26.3,23.0,30.36,West,270,0.0,2.8,86,0.00,,,0.00,Rainwise IP-100,2013-01-09 07:27:00,
2013-01-09 02:32:00,26.2,23.0,30.36,WNW,292,1.6,2.8,86,0.00,,,0.00,Rainwise IP-100,2013-01-09 07:32:00,
2013-01-09 02:37:00,26.2,23.0,30.36,WNW,292,2.1,3.5,86,0.00,,,0.00,Rainwise IP-100,2013-01-09 07:37:00,
2013-01-09 02:42:00,26.3,23.0,30.36,WNW,292,4.7,4.7,87,0.00,,,0.00,Rainwise IP-100,2013-01-09 07:42:00,
2013-01-09 02:47:00,26.9,24.0,30.36,WNW,292,4.4,5.1,86,0.00,,,0.00,Rainwise IP-100,2013-01-09 07:47:00,
2013-01-09 02:52:00,28.0,24.0,30.36,WNW,292,3.7,6.5,85,0.00,,,0.00,Rainwise IP-100,2013-01-09 07:52:00,
2013-01-09 02:57:00,28.7,24.0,30.36,NW,315,4.7,7.5,83,0.00,,,0.00,Rainwise IP-100,2013-01-09 07:57:00,
2013-01-09 03:02:00,29.0,24.0,30.36,WNW,292,5.4,7.7,82,0.00,,,0.00,Rainwise IP-100,2013-01-09 08:02:00,
2013-01-09 03:07:00,29.1,24.0,30.36,NW,315,3.7,8.4,82,0.00,,,0.00,Rainwise IP-100,2013-01-09 08:07:00,
2013-01-09 03:12:00,29.2,24.0,30.35,WNW,292,3.7,7.0,82,0.00,,,0.00,Rainwise IP-100,2013-01-09 08:12:00,
2013-01-09 03:17:00,29.2,24.0,30.35,WNW,292,3.7,6.5,81,0.00,,,0.00,Rainwise IP-100,2013-01-09 08:17:00,
2013-01-09 03:22:00,29.3,24.0,30.35,NW,315,4.2,7.2,81,0.00,,,0.00,Rainwise IP-100,2013-01-09 08:22:00,
2013-01-09 03:27:00,29.4,24.0,30.35,NNW,337,6.5,7.7,81,0.00,,,0.00,Rainwise IP-100,2013-01-09 08:27:00,
2013-01-09 03:32:00,29.5,26.0,30.34,West,270,4.9,7.9,81,0.00,,,0.00,Rainwise IP-100,2013-01-09 08:32:00,
2013-01-09 03:37:00,29.7,26.0,30.35,WNW,292,3.5,8.2,80,0.00,,,0.00,Rainwise IP-100,2013-01-09 08:37:00,
2013-01-09 03:42:00,29.9,26.0,30.35,NNW,337,2.3,9.3,80,0.00,,,0.00,Rainwise IP-100,2013-01-09 08:42:00,
2013-01-09 03:47:00,29.9,26.0,30.35,NNW,337,7.2,7.2,80,0.00,,,0.00,Rainwise IP-100,2013-01-09 08:47:00,
2013-01-09 03:52:00,29.7,26.0,30.35,WNW,292,5.1,7.7,80,0.00,,,0.00,Rainwise IP-100,2013-01-09 08:52:00,
2013-01-09 03:55:00,29.6,26.0,30.34,NNW,337,4.9,7.7,80,0.00,,,0.00,Rainwise IP-100,2013-01-09 08:55:00,
2013-01-09 04:00:00,29.4,24.0,30.34,North,360,9.6,9.6,80,0.00,,,0.00,Rainwise IP-100,2013-01-09 09:00:00,
2013-01-09 04:05:00,29.2,24.0,30.34,WNW,292,1.9,9.6,80,0.00,,,0.00,Rainwise IP-100,2013-01-09 09:05:00,
2013-01-09 04:10:00,29.0,24.0,30.34,NW,315,3.3,6.8,81,0.00,,,0.00,Rainwise IP-100,2013-01-09 09:10:00,
2013-01-09 04:15:00,29.0,24.0,30.34,NNW,337,3.0,6.5,81,0.00,,,0.00,Rainwise IP-100,2013-01-09 09:15:00,
2013-01-09 04:20:00,29.1,24.0,30.34,NNW,337,3.0,6.8,81,0.00,,,0.00,Rainwise IP-100,2013-01-09 09:20:00,
2013-01-09 04:25:00,29.2,24.0,30.34,NW,315,2.8,5.6,81,0.00,,,0.00,Rainwise IP-100,2013-01-09 09:25:00,
2013-01-09 04:30:00,29.1,24.0,30.34,NNW,337,2.6,4.2,81,0.00,,,0.00,Rainwise IP-100,2013-01-09 09:30:00,
2013-01-09 04:35:00,29.0,24.0,30.34,NNW,337,7.5,7.5,81,0.00,,,0.00,Rainwise IP-100,2013-01-09 09:35:00,
2013-01-09 04:40:00,29.0,24.0,30.34,WNW,292,2.1,7.5,82,0.00,,,0.00,Rainwise IP-100,2013-01-09 09:40:00,
2013-01-09 04:45:00,29.1,24.0,30.34,WNW,292,2.3,6.3,82,0.00,,,0.00,Rainwise IP-100,2013-01-09 09:45:00,
2013-01-09 04:50:00,29.2,24.0,30.34,NNW,337,2.3,5.4,82,0.00,,,0.00,Rainwise IP-100,2013-01-09 09:50:00,
2013-01-09 04:55:00,29.2,24.0,30.34,NNW,337,3.7,5.8,82,0.00,,,0.00,Rainwise IP-100,2013-01-09 09:55:00,
2013-01-09 05:00:00,29.2,24.0,30.35,NNW,337,3.7,5.8,82,0.00,,,0.00,Rainwise IP-100,2013-01-09 10:00:00,
2013-01-09 05:05:00,29.1,24.0,30.35,WNW,292,2.8,5.1,82,0.00,,,0.00,Rainwise IP-100,2013-01-09 10:05:00,
2013-01-09 05:10:00,29.2,24.0,30.34,NW,315,2.1,4.7,81,0.00,,,0.00,Rainwise IP-100,2013-01-09 10:10:00,
2013-01-09 05:15:00,29.3,24.0,30.35,WNW,292,2.3,4.4,81,0.00,,,0.00,Rainwise IP-100,2013-01-09 10:15:00,
2013-01-09 05:20:00,29.5,26.0,30.35,WNW,292,3.0,4.9,80,0.00,,,0.00,Rainwise IP-100,2013-01-09 10:20:00,
2013-01-09 05:25:00,29.8,26.0,30.35,NNW,337,4.4,7.2,80,0.00,,,0.00,Rainwise IP-100,2013-01-09 10:25:00,
2013-01-09 05:30:00,29.8,26.0,30.35,WNW,292,5.6,7.5,80,0.00,,,0.00,Rainwise IP-100,2013-01-09 10:30:00,
2013-01-09 05:35:00,29.9,26.0,30.35,NW,315,4.2,6.8,80,0.00,,,0.00,Rainwise IP-100,2013-01-09 10:35:00,
2013-01-09 05:40:00,30.1,24.0,30.36,WNW,292,3.5,5.1,79,0.00,,,0.00,Rainwise IP-100,2013-01-09 10:40:00,
2013-01-09 05:45:00,30.2,24.0,30.36,WNW,292,3.3,4.7,79,0.00,,,0.00,Rainwise IP-100,2013-01-09 10:45:00,
2013-01-09 05:50:00,30.2,24.0,30.36,NW,315,2.1,4.7,79,0.00,,,0.00,Rainwise IP-100,2013-01-09 10:50:00,
2013-01-09 05:55:00,30.2,24.0,30.35,NNW,337,2.1,4.4,79,0.00,,,0.00,Rainwise IP-100,2013-01-09 10:55:00,
2013-01-09 06:00:00,30.2,24.0,30.35,WNW,292,1.6,4.7,79,0.00,,,0.00,Rainwise IP-100,2013-01-09 11:00:00,
2013-01-09 06:05:00,30.3,24.0,30.36,WNW,292,2.8,4.4,79,0.00,,,0.00,Rainwise IP-100,2013-01-09 11:05:00,
2013-01-09 06:10:00,30.2,24.0,30.35,WNW,292,1.6,4.4,79,0.00,,,0.00,Rainwise IP-100,2013-01-09 11:10:00,
2013-01-09 06:15:00,30.2,24.0,30.36,WNW,292,1.6,3.7,79,0.00,,,0.00,Rainwise IP-100,2013-01-09 11:15:00,
2013-01-09 06:20:00,30.2,24.0,30.36,WNW,292,1.4,3.7,79,0.00,,,0.00,Rainwise IP-100,2013-01-09 11:20:00,
2013-01-09 06:25:00,30.3,24.0,30.36,NNW,337,2.1,3.0,79,0.00,,,0.00,Rainwise IP-100,2013-01-09 11:25:00,
2013-01-09 06:30:00,30.3,24.0,30.37,NNW,337,2.1,3.3,79,0.00,,,0.00,Rainwise IP-100,2013-01-09 11:30:00,
2013-01-09 06:35:00,30.4,24.0,30.37,WNW,292,1.4,3.3,79,0.00,,,0.00,Rainwise IP-100,2013-01-09 11:35:00,
2013-01-09 06:40:00,30.3,24.0,30.37,WNW,292,0.0,2.3,79,0.00,,,0.00,Rainwise IP-100,2013-01-09 11:40:00,
2013-01-09 06:45:00,29.7,24.0,30.38,SSW,202,0.0,2.8,79,0.00,,,0.00,Rainwise IP-100,2013-01-09 11:45:00,
2013-01-09 06:50:00,29.0,24.0,30.37,WNW,292,1.2,1.6,80,0.00,,,0.00,Rainwise IP-100,2013-01-09 11:50:00,
2013-01-09 06:55:00,28.9,24.0,30.38,WNW,292,1.9,4.0,81,0.00,,,0.00,Rainwise IP-100,2013-01-09 11:55:00,
2013-01-09 07:00:00,29.5,26.0,30.38,NW,315,2.3,2.8,81,0.00,,,0.00,Rainwise IP-100,2013-01-09 12:00:00,
2013-01-09 07:05:00,30.0,26.0,30.38,WNW,292,3.0,4.2,80,0.00,,,0.00,Rainwise IP-100,2013-01-09 12:05:00,
2013-01-09 07:10:00,30.4,24.0,30.39,WNW,292,1.2,3.0,79,0.00,,,0.00,Rainwise IP-100,2013-01-09 12:10:00,
2013-01-09 07:15:00,30.6,24.0,30.39,NW,315,2.6,3.0,78,0.00,,,0.00,Rainwise IP-100,2013-01-09 12:15:00,
2013-01-09 07:20:00,30.4,24.0,30.39,WNW,292,1.2,4.0,78,0.00,,,0.00,Rainwise IP-100,2013-01-09 12:20:00,
2013-01-09 07:25:00,29.8,24.0,30.39,WNW,292,1.9,2.1,78,0.00,,,0.00,Rainwise IP-100,2013-01-09 12:25:00,
2013-01-09 07:30:00,29.8,24.0,30.39,WNW,292,1.2,2.8,79,0.00,,,0.00,Rainwise IP-100,2013-01-09 12:30:00,
2013-01-09 07:35:00,30.3,24.0,30.39,WNW,292,1.4,2.1,78,0.00,,,0.00,Rainwise IP-100,2013-01-09 12:35:00,
2013-01-09 07:40:00,30.8,24.0,30.40,WNW,292,0.0,1.9,77,0.00,,,0.00,Rainwise IP-100,2013-01-09 12:40:00,
2013-01-09 07:45:00,31.0,24.0,30.40,WNW,292,0.0,0.0,77,0.00,,,0.00,Rainwise IP-100,2013-01-09 12:45:00,
2013-01-09 07:50:00,31.2,24.0,30.40,WNW,292,0.0,1.9,76,0.00,,,0.00,Rainwise IP-100,2013-01-09 12:50:00,
2013-01-09 07:55:00,31.4,24.0,30.40,WNW,292,0.0,1.6,76,0.00,,,0.00,Rainwise IP-100,2013-01-09 12:55:00,
2013-01-09 08:00:00,31.8,26.0,30.40,WNW,292,1.2,1.2,75,0.00,,,0.00,Rainwise IP-100,2013-01-09 13:00:00,
2013-01-09 08:05:00,32.0,26.0,30.39,WNW,292,0.0,1.2,75,0.00,,,0.00,Rainwise IP-100,2013-01-09 13:05:00,
2013-01-09 08:10:00,32.6,26.0,30.40,WNW,292,0.0,0.0,73,0.00,,,0.00,Rainwise IP-100,2013-01-09 13:10:00,
2013-01-09 08:15:00,33.3,26.0,30.39,WNW,292,0.0,0.0,73,0.00,,,0.00,Rainwise IP-100,2013-01-09 13:15:00,
2013-01-09 08:20:00,34.3,26.0,30.39,WNW,292,0.0,0.0,72,0.00,,,0.00,Rainwise IP-100,2013-01-09 13:20:00,
2013-01-09 08:25:00,35.1,26.0,30.39,SSW,202,0.0,0.0,70,0.00,,,0.00,Rainwise IP-100,2013-01-09 13:25:00,
2013-01-09 08:30:00,35.5,26.0,30.39,SSE,157,1.9,0.0,69,0.00,,,0.00,Rainwise IP-100,2013-01-09 13:30:00,
2013-01-09 08:35:00,35.5,26.0,30.39,SE,135,1.4,2.3,67,0.00,,,0.00,Rainwise IP-100,2013-01-09 13:35:00,
2013-01-09 08:40:00,35.3,24.0,30.39,SE,135,0.0,2.6,67,0.00,,,0.00,Rainwise IP-100,2013-01-09 13:40:00,
2013-01-09 08:45:00,35.3,24.0,30.39,SE,135,0.0,2.3,67,0.00,,,0.00,Rainwise IP-100,2013-01-09 13:45:00,
2013-01-09 08:50:00,35.4,24.0,30.38,SE,135,2.3,2.8,67,0.00,,,0.00,Rainwise IP-100,2013-01-09 13:50:00,
2013-01-09 08:55:00,35.4,24.0,30.38,SE,135,1.4,3.0,67,0.00,,,0.00,Rainwise IP-100,2013-01-09 13:55:00,
2013-01-09 09:00:00,35.6,26.0,30.38,South,180,1.6,2.8,67,0.00,,,0.00,Rainwise IP-100,2013-01-09 14:00:00,
2013-01-09 09:05:00,36.1,26.0,30.38,SSE,157,1.6,2.6,66,0.00,,,0.00,Rainwise IP-100,2013-01-09 14:05:00,
2013-01-09 09:10:00,36.5,26.0,30.38,SSE,157,2.8,2.8,65,0.00,,,0.00,Rainwise IP-100,2013-01-09 14:10:00,
2013-01-09 09:15:00,36.5,26.0,30.38,SSE,157,2.8,3.5,65,0.00,,,0.00,Rainwise IP-100,2013-01-09 14:15:00,
2013-01-09 09:20:00,36.2,26.0,30.38,SSE,157,2.6,4.9,65,0.00,,,0.00,Rainwise IP-100,2013-01-09 14:20:00,
2013-01-09 09:25:00,35.7,26.0,30.38,SSE,157,2.6,4.7,65,0.00,,,0.00,Rainwise IP-100,2013-01-09 14:25:00,
2013-01-09 09:30:00,35.3,24.0,30.37,ESE,112,2.1,4.4,66,0.00,,,0.00,Rainwise IP-100,2013-01-09 14:30:00,
2013-01-09 09:35:00,34.9,24.0,30.37,SSE,157,1.9,4.0,66,0.00,,,0.00,Rainwise IP-100,2013-01-09 14:35:00,
2013-01-09 09:40:00,34.3,24.0,30.38,ESE,112,1.9,3.5,67,0.00,,,0.00,Rainwise IP-100,2013-01-09 14:40:00,
2013-01-09 09:45:00,34.7,24.0,30.38,SE,135,1.4,2.6,67,0.00,,,0.00,Rainwise IP-100,2013-01-09 14:45:00,
2013-01-09 09:50:00,35.4,24.0,30.38,SSE,157,2.8,2.8,67,0.00,,,0.00,Rainwise IP-100,2013-01-09 14:50:00,
2013-01-09 09:55:00,36.2,26.0,30.38,SE,135,2.6,3.3,66,0.00,,,0.00,Rainwise IP-100,2013-01-09 14:55:00,
2013-01-09 10:00:00,35.9,26.0,30.38,SE,135,1.9,3.5,65,0.00,,,0.00,Rainwise IP-100,2013-01-09 15:00:00,
2013-01-09 10:05:00,35.8,26.0,30.37,SSE,157,1.6,4.7,65,0.00,,,0.00,Rainwise IP-100,2013-01-09 15:05:00,
2013-01-09 10:10:00,36.6,26.0,30.37,SSE,157,2.8,4.2,65,0.00,,,0.00,Rainwise IP-100,2013-01-09 15:10:00,
2013-01-09 10:15:00,36.8,26.0,30.36,SSE,157,3.7,5.4,64,0.00,,,0.00,Rainwise IP-100,2013-01-09 15:15:00,
2013-01-09 10:20:00,36.3,24.0,30.36,SSE,157,3.7,5.1,64,0.00,,,0.00,Rainwise IP-100,2013-01-09 15:20:00,
2013-01-09 10:25:00,35.8,24.0,30.36,SSE,157,2.1,5.4,64,0.00,,,0.00,Rainwise IP-100,2013-01-09 15:25:00,
2013-01-09 10:30:00,36.0,24.0,30.35,SSE,157,3.5,5.4,64,0.00,,,0.00,Rainwise IP-100,2013-01-09 15:30:00,
2013-01-09 10:35:00,36.1,24.0,30.35,SE,135,3.3,5.1,64,0.00,,,0.00,Rainwise IP-100,2013-01-09 15:35:00,
2013-01-09 10:40:00,36.1,26.0,30.35,SSE,157,3.0,5.1,65,0.00,,,0.00,Rainwise IP-100,2013-01-09 15:40:00,
2013-01-09 10:45:00,36.2,24.0,30.35,SSE,157,2.1,6.3,64,0.00,,,0.00,Rainwise IP-100,2013-01-09 15:45:00,
2013-01-09 10:50:00,36.4,24.0,30.36,SSW,202,2.1,6.8,64,0.00,,,0.00,Rainwise IP-100,2013-01-09 15:50:00,
2013-01-09 10:55:00,36.6,26.0,30.35,SSE,157,5.8,6.3,63,0.00,,,0.00,Rainwise IP-100,2013-01-09 15:55:00,
2013-01-09 11:00:00,36.8,26.0,30.34,SE,135,4.2,6.3,63,0.00,,,0.00,Rainwise IP-100,2013-01-09 16:00:00,
2013-01-09 11:05:00,36.4,24.0,30.33,SSE,157,5.4,8.4,63,0.00,,,0.00,Rainwise IP-100,2013-01-09 16:05:00,
2013-01-09 11:10:00,36.2,24.0,30.32,ESE,112,5.1,7.5,63,0.00,,,0.00,Rainwise IP-100,2013-01-09 16:10:00,
2013-01-09 11:15:00,36.2,24.0,30.32,SSE,157,5.8,7.5,64,0.00,,,0.00,Rainwise IP-100,2013-01-09 16:15:00,
2013-01-09 11:20:00,35.9,24.0,30.31,SE,135,3.7,6.8,64,0.00,,,0.00,Rainwise IP-100,2013-01-09 16:20:00,
2013-01-09 11:25:00,35.9,24.0,30.30,SE,135,2.6,7.2,64,0.00,,,0.00,Rainwise IP-100,2013-01-09 16:25:00,
2013-01-09 11:30:00,35.9,24.0,30.30,SE,135,4.4,7.9,64,0.00,,,0.00,Rainwise IP-100,2013-01-09 16:30:00,
2013-01-09 11:35:00,35.7,26.0,30.29,South,180,3.0,7.9,65,0.00,,,0.00,Rainwise IP-100,2013-01-09 16:35:00,
2013-01-09 11:40:00,35.6,26.0,30.28,ESE,112,5.4,6.3,66,0.00,,,0.00,Rainwise IP-100,2013-01-09 16:40:00,
2013-01-09 11:45:00,35.5,26.0,30.27,SSE,157,2.8,7.9,66,0.00,,,0.00,Rainwise IP-100,2013-01-09 16:45:00,
2013-01-09 11:50:00,35.6,26.0,30.27,SSE,157,2.8,5.4,66,0.00,,,0.00,Rainwise IP-100,2013-01-09 16:50:00,
2013-01-09 11:55:00,35.7,26.0,30.27,SSE,157,2.6,4.7,66,0.00,,,0.00,Rainwise IP-100,2013-01-09 16:55:00,
2013-01-09 12:00:00,35.5,26.0,30.25,SSE,157,3.3,7.5,66,0.00,,,0.00,Rainwise IP-100,2013-01-09 17:00:00,
2013-01-09 12:05:00,35.3,24.0,30.24,ESE,112,4.0,6.3,67,0.00,,,0.00,Rainwise IP-100,2013-01-09 17:05:00,
2013-01-09 12:10:00,35.1,26.0,30.25,SSE,157,4.0,7.9,68,0.00,,,0.00,Rainwise IP-100,2013-01-09 17:10:00,
2013-01-09 12:15:00,35.1,26.0,30.25,SE,135,1.9,6.3,68,0.00,,,0.00,Rainwise IP-100,2013-01-09 17:15:00,
2013-01-09 12:20:00,35.2,26.0,30.25,South,180,1.6,4.9,69,0.00,,,0.00,Rainwise IP-100,2013-01-09 17:20:00,
2013-01-09 12:25:00,35.4,26.0,30.25,SSE,157,3.5,6.8,70,0.00,,,0.00,Rainwise IP-100,2013-01-09 17:25:00,
2013-01-09 12:30:00,35.5,28.0,30.25,SSE,157,5.6,5.6,70,0.00,,,0.00,Rainwise IP-100,2013-01-09 17:30:00,
2013-01-09 12:35:00,35.5,28.0,30.25,SSW,202,2.8,6.5,70,0.00,,,0.00,Rainwise IP-100,2013-01-09 17:35:00,
2013-01-09 12:40:00,35.5,28.0,30.24,SSW,202,3.3,7.5,70,0.00,,,0.00,Rainwise IP-100,2013-01-09 17:40:00,
2013-01-09 12:45:00,35.5,28.0,30.24,SE,135,2.1,5.6,71,0.00,,,0.00,Rainwise IP-100,2013-01-09 17:45:00,
2013-01-09 12:50:00,35.5,28.0,30.24,SE,135,3.3,6.3,71,0.00,,,0.00,Rainwise IP-100,2013-01-09 17:50:00,
2013-01-09 12:55:00,35.4,26.0,30.24,SSE,157,0.0,5.8,71,0.00,,,0.00,Rainwise IP-100,2013-01-09 17:55:00,
2013-01-09 13:00:00,35.4,26.0,30.24,ESE,112,2.6,4.4,72,0.00,,,0.00,Rainwise IP-100,2013-01-09 18:00:00,
2013-01-09 13:05:00,35.3,28.0,30.23,SSE,157,3.7,6.1,73,0.00,,,0.00,Rainwise IP-100,2013-01-09 18:05:00,
2013-01-09 13:10:00,35.2,28.0,30.23,SSE,157,2.3,4.7,73,0.00,,,0.00,Rainwise IP-100,2013-01-09 18:10:00,
2013-01-09 13:15:00,35.4,28.0,30.23,SSE,157,2.8,4.4,74,0.00,,,0.00,Rainwise IP-100,2013-01-09 18:15:00,
2013-01-09 13:20:00,35.4,28.0,30.22,SSE,157,2.8,5.4,74,0.00,,,0.00,Rainwise IP-100,2013-01-09 18:20:00,
2013-01-09 13:25:00,35.4,28.0,30.22,SE,135,3.0,4.4,75,0.00,,,0.00,Rainwise IP-100,2013-01-09 18:25:00,
2013-01-09 13:30:00,35.3,28.0,30.22,SSE,157,2.8,4.9,75,0.00,,,0.00,Rainwise IP-100,2013-01-09 18:30:00,
2013-01-09 13:35:00,35.2,28.0,30.21,SSE,157,3.3,5.6,75,0.00,,,0.00,Rainwise IP-100,2013-01-09 18:35:00,
2013-01-09 13:40:00,35.2,28.0,30.21,ESE,112,3.0,5.4,76,0.00,,,0.00,Rainwise IP-100,2013-01-09 18:40:00,
2013-01-09 13:41:00,35.2,28.0,30.21,ESE,112,4.9,5.4,76,0.00,,,0.00,Rainwise IP-100,2013-01-09 18:41:00,
2013-01-09 13:44:00,35.2,28.0,30.20,ESE,112,4.9,5.4,76,0.00,,,0.00,Rainwise IP-100,2013-01-09 18:44:00,
2013-01-09 13:48:00,35.1,28.0,30.19,ESE,112,5.1,6.1,76,0.00,,,0.00,Rainwise IP-100,2013-01-09 18:48:00,
2013-01-09 13:53:00,35.0,28.0,30.18,ESE,112,3.5,5.8,76,0.00,,,0.00,Rainwise IP-100,2013-01-09 18:53:00,
2013-01-09 13:58:00,35.0,28.0,30.18,ESE,112,2.6,5.4,77,0.00,,,0.00,Rainwise IP-100,2013-01-09 18:58:00,
2013-01-09 14:03:00,35.0,28.0,30.18,ESE,112,3.5,6.3,77,0.00,,,0.00,Rainwise IP-100,2013-01-09 19:03:00,
2013-01-09 14:08:00,35.0,28.0,30.17,ESE,112,3.3,5.8,77,0.00,,,0.00,Rainwise IP-100,2013-01-09 19:08:00,
2013-01-09 14:13:00,34.9,28.0,30.16,East,90,3.7,6.3,77,0.00,,,0.00,Rainwise IP-100,2013-01-09 19:13:00,
2013-01-09 14:18:00,34.8,28.0,30.14,ESE,112,3.5,6.3,77,0.00,,,0.00,Rainwise IP-100,2013-01-09 19:18:00,
2013-01-09 14:23:00,34.7,29.0,30.14,ESE,112,4.7,6.5,78,0.00,,,0.00,Rainwise IP-100,2013-01-09 19:23:00,
2013-01-09 14:28:00,34.7,29.0,30.13,ESE,112,3.3,6.1,79,0.00,,,0.00,Rainwise IP-100,2013-01-09 19:28:00,
2013-01-09 14:33:00,34.8,29.0,30.13,ESE,112,4.4,7.0,80,0.00,,,0.00,Rainwise IP-100,2013-01-09 19:33:00,
2013-01-09 14:38:00,34.9,29.0,30.13,ESE,112,2.3,7.2,81,0.00,,,0.00,Rainwise IP-100,2013-01-09 19:38:00,
2013-01-09 14:43:00,35.1,29.0,30.13,ESE,112,4.0,5.6,82,0.00,,,0.00,Rainwise IP-100,2013-01-09 19:43:00,
2013-01-09 14:48:00,35.3,29.0,30.13,East,90,4.4,6.8,82,0.00,,,0.00,Rainwise IP-100,2013-01-09 19:48:00,
2013-01-09 14:53:00,35.4,31.0,30.13,SSE,157,3.0,6.5,83,0.00,,,0.00,Rainwise IP-100,2013-01-09 19:53:00,
2013-01-09 14:58:00,35.5,32.0,30.12,ESE,112,1.4,6.1,84,0.00,,,0.00,Rainwise IP-100,2013-01-09 19:58:00,
2013-01-09 15:00:00,35.5,32.0,30.12,SSE,157,2.8,6.1,84,0.00,,,0.00,Rainwise IP-100,2013-01-09 20:00:00,
2013-01-09 15:05:00,35.5,32.0,30.12,SSE,157,4.0,4.9,84,0.00,,,0.00,Rainwise IP-100,2013-01-09 20:05:00,
2013-01-09 15:10:00,35.5,32.0,30.12,SSE,157,3.7,5.8,85,0.00,,,0.00,Rainwise IP-100,2013-01-09 20:10:00,
2013-01-09 15:15:00,35.6,32.0,30.12,South,180,3.5,5.4,85,0.00,,,0.00,Rainwise IP-100,2013-01-09 20:15:00,
2013-01-09 15:20:00,35.6,32.0,30.12,SSE,157,3.5,4.9,86,0.00,,,0.00,Rainwise IP-100,2013-01-09 20:20:00,
2013-01-09 15:25:00,35.6,32.0,30.12,SSE,157,1.9,4.4,86,0.00,,,0.00,Rainwise IP-100,2013-01-09 20:25:00,
2013-01-09 15:30:00,35.6,32.0,30.12,SSE,157,2.8,4.7,86,0.00,,,0.00,Rainwise IP-100,2013-01-09 20:30:00,
2013-01-09 15:35:00,35.5,32.0,30.11,SSW,202,4.0,4.9,86,0.00,,,0.00,Rainwise IP-100,2013-01-09 20:35:00,
2013-01-09 15:40:00,35.4,31.0,30.11,SSW,202,2.3,5.8,87,0.00,,,0.00,Rainwise IP-100,2013-01-09 20:40:00,
2013-01-09 15:45:00,35.4,31.0,30.11,South,180,5.1,6.3,87,0.00,,,0.00,Rainwise IP-100,2013-01-09 20:45:00,
2013-01-09 15:50:00,35.6,32.0,30.11,SSW,202,3.7,7.5,88,0.00,,,0.00,Rainwise IP-100,2013-01-09 20:50:00,
2013-01-09 15:55:00,35.7,33.0,30.11,SSW,202,2.8,9.3,89,0.00,,,0.00,Rainwise IP-100,2013-01-09 20:55:00,
2013-01-09 16:00:00,35.7,33.0,30.11,SSW,202,3.0,7.9,89,0.00,,,0.00,Rainwise IP-100,2013-01-09 21:00:00,
2013-01-09 16:05:00,35.7,33.0,30.10,SSW,202,3.5,6.3,90,0.00,,,0.00,Rainwise IP-100,2013-01-09 21:05:00,
2013-01-09 16:10:00,35.7,33.0,30.10,SSW,202,3.7,7.5,90,0.00,,,0.00,Rainwise IP-100,2013-01-09 21:10:00,
2013-01-09 16:15:00,35.6,33.0,30.10,SSW,202,3.3,9.1,90,0.00,,,0.00,Rainwise IP-100,2013-01-09 21:15:00,
2013-01-09 16:20:00,35.6,33.0,30.10,SW,225,4.0,10.3,90,0.00,,,0.00,Rainwise IP-100,2013-01-09 21:20:00,
2013-01-09 16:25:00,35.6,33.0,30.09,SSW,202,7.0,7.0,91,0.00,,,0.00,Rainwise IP-100,2013-01-09 21:25:00,
2013-01-09 16:30:00,35.6,33.0,30.09,SE,135,4.4,7.5,91,0.00,,,0.00,Rainwise IP-100,2013-01-09 21:30:00,
2013-01-09 16:35:00,35.6,33.0,30.08,South,180,8.2,8.2,91,0.00,,,0.00,Rainwise IP-100,2013-01-09 21:35:00,
2013-01-09 16:40:00,35.6,33.0,30.07,SSW,202,2.3,9.6,91,0.00,,,0.00,Rainwise IP-100,2013-01-09 21:40:00,
2013-01-09 16:45:00,35.6,33.0,30.06,SSW,202,4.4,6.8,91,0.00,,,0.00,Rainwise IP-100,2013-01-09 21:45:00,
2013-01-09 16:50:00,35.6,33.0,30.06,South,180,3.5,9.3,91,0.00,,,0.00,Rainwise IP-100,2013-01-09 21:50:00,
2013-01-09 16:55:00,35.7,33.0,30.05,SSW,202,5.1,6.3,91,0.00,,,0.00,Rainwise IP-100,2013-01-09 21:55:00,
2013-01-09 17:00:00,35.6,33.0,30.04,SSW,202,5.8,7.9,91,0.00,,,0.00,Rainwise IP-100,2013-01-09 22:00:00,
2013-01-09 17:05:00,35.6,33.0,30.04,SSW,202,4.0,7.7,91,0.00,,,0.00,Rainwise IP-100,2013-01-09 22:05:00,
2013-01-09 17:10:00,35.6,33.0,30.04,SSW,202,4.4,7.9,91,0.00,,,0.00,Rainwise IP-100,2013-01-09 22:10:00,
2013-01-09 17:15:00,35.6,33.0,30.04,SSW,202,3.7,7.9,92,0.00,,,0.00,Rainwise IP-100,2013-01-09 22:15:00,
2013-01-09 17:20:00,35.7,33.0,30.03,SSE,157,7.9,9.3,91,0.00,,,0.00,Rainwise IP-100,2013-01-09 22:20:00,
2013-01-09 17:25:00,35.8,33.0,30.02,SSW,202,4.4,10.0,91,0.00,,,0.00,Rainwise IP-100,2013-01-09 22:25:00,
2013-01-09 17:30:00,35.9,33.0,30.02,SSW,202,7.0,9.1,91,0.00,,,0.00,Rainwise IP-100,2013-01-09 22:30:00,
2013-01-09 17:35:00,35.8,33.0,30.01,SSE,157,8.2,8.4,91,0.00,,,0.00,Rainwise IP-100,2013-01-09 22:35:00,
2013-01-09 17:40:00,35.9,33.0,30.01,South,180,4.9,9.1,91,0.00,,,0.00,Rainwise IP-100,2013-01-09 22:40:00,
2013-01-09 17:45:00,36.1,33.0,30.01,SSE,157,6.5,9.6,91,0.00,,,0.00,Rainwise IP-100,2013-01-09 22:45:00,
2013-01-09 17:50:00,36.2,33.0,30.02,SSW,202,3.7,8.2,91,0.00,,,0.00,Rainwise IP-100,2013-01-09 22:50:00,
2013-01-09 17:55:00,36.3,33.0,30.02,WSW,247,2.8,6.8,91,0.00,,,0.00,Rainwise IP-100,2013-01-09 22:55:00,
2013-01-09 18:00:00,36.3,33.0,30.02,WSW,247,3.7,9.6,91,0.00,,,0.00,Rainwise IP-100,2013-01-09 23:00:00,
2013-01-09 18:05:00,36.1,33.0,30.00,SSW,202,3.7,11.0,92,0.00,,,0.00,Rainwise IP-100,2013-01-09 23:05:00,
2013-01-09 18:10:00,36.1,33.0,30.00,SSW,202,5.4,10.0,92,0.00,,,0.00,Rainwise IP-100,2013-01-09 23:10:00,
2013-01-09 18:15:00,36.1,35.0,29.98,SSW,202,7.2,10.7,93,0.00,,,0.00,Rainwise IP-100,2013-01-09 23:15:00,
2013-01-09 18:20:00,36.3,35.0,29.97,SSW,202,7.2,9.1,93,0.00,,,0.00,Rainwise IP-100,2013-01-09 23:20:00,
2013-01-09 18:25:00,36.2,35.0,29.97,SSE,157,3.3,12.4,93,0.00,,,0.00,Rainwise IP-100,2013-01-09 23:25:00,
2013-01-09 18:30:00,36.1,35.0,29.97,South,180,8.4,8.4,93,0.00,,,0.00,Rainwise IP-100,2013-01-09 23:30:00,
2013-01-09 18:35:00,36.0,35.0,29.95,South,180,2.6,9.1,93,0.00,,,0.00,Rainwise IP-100,2013-01-09 23:35:00,
2013-01-09 18:40:00,35.8,35.0,29.95,SSE,157,5.4,8.2,94,0.00,,,0.00,Rainwise IP-100,2013-01-09 23:40:00,
2013-01-09 18:45:00,35.7,35.0,29.95,SSE,157,2.6,7.0,94,0.00,,,0.00,Rainwise IP-100,2013-01-09 23:45:00,
2013-01-09 18:50:00,35.7,35.0,29.95,SSW,202,3.7,7.7,94,0.00,,,0.00,Rainwise IP-100,2013-01-09 23:50:00,
2013-01-09 18:55:00,35.8,35.0,29.94,South,180,5.1,7.2,95,0.00,,,0.00,Rainwise IP-100,2013-01-09 23:55:00,
2013-01-09 19:00:00,35.9,35.0,29.94,SSE,157,4.4,6.8,95,0.00,,,0.00,Rainwise IP-100,2013-01-10 00:00:00,
2013-01-09 19:05:00,36.0,35.0,29.94,SSW,202,3.0,5.4,95,0.00,,,0.00,Rainwise IP-100,2013-01-10 00:05:00,
2013-01-09 19:10:00,36.1,35.0,29.95,SSW,202,2.1,5.8,95,0.00,,,0.00,Rainwise IP-100,2013-01-10 00:10:00,
2013-01-09 19:15:00,36.2,35.0,29.94,SSW,202,6.3,6.3,96,0.00,,,0.00,Rainwise IP-100,2013-01-10 00:15:00,
2013-01-09 19:20:00,36.3,35.0,29.93,SSW,202,3.7,8.4,96,0.00,,,0.00,Rainwise IP-100,2013-01-10 00:20:00,
2013-01-09 19:25:00,36.3,35.0,29.93,SSW,202,4.0,5.4,96,0.00,,,0.00,Rainwise IP-100,2013-01-10 00:25:00,
2013-01-09 19:30:00,36.3,35.0,29.92,SSW,202,3.0,7.0,96,0.00,,,0.00,Rainwise IP-100,2013-01-10 00:30:00,
2013-01-09 19:35:00,36.3,35.0,29.92,SSE,157,4.4,8.6,96,0.00,,,0.00,Rainwise IP-100,2013-01-10 00:35:00,
2013-01-09 19:40:00,36.3,35.0,29.92,SSW,202,3.3,7.7,96,0.00,,,0.00,Rainwise IP-100,2013-01-10 00:40:00,
2013-01-09 19:45:00,36.3,35.0,29.92,SSE,157,4.4,8.2,96,0.00,,,0.00,Rainwise IP-100,2013-01-10 00:45:00,
2013-01-09 19:50:00,36.3,35.0,29.91,SSW,202,2.6,8.9,96,0.06,,,0.01,Rainwise IP-100,2013-01-10 00:50:00,
2013-01-09 19:55:00,36.3,35.0,29.91,WSW,247,2.6,9.8,97,0.06,,,0.01,Rainwise IP-100,2013-01-10 00:55:00,
2013-01-09 20:00:00,36.2,35.0,29.91,SSW,202,4.0,10.0,97,0.00,,,0.01,Rainwise IP-100,2013-01-10 01:00:00,
2013-01-09 20:05:00,36.3,35.0,29.90,WSW,247,2.8,9.3,97,0.00,,,0.01,Rainwise IP-100,2013-01-10 01:05:00,
2013-01-09 20:10:00,36.4,35.0,29.90,SSE,157,4.0,10.3,97,0.00,,,0.01,Rainwise IP-100,2013-01-10 01:10:00,
2013-01-09 20:15:00,36.6,37.0,29.89,WSW,247,3.3,10.3,98,0.00,,,0.01,Rainwise IP-100,2013-01-10 01:15:00,
2013-01-09 20:20:00,36.7,37.0,29.90,WSW,247,4.7,8.6,98,0.00,,,0.01,Rainwise IP-100,2013-01-10 01:20:00,
2013-01-09 20:25:00,36.9,37.0,29.90,SSW,202,4.2,7.2,98,0.00,,,0.01,Rainwise IP-100,2013-01-10 01:25:00,
2013-01-09 20:30:00,37.0,37.0,29.89,WSW,247,5.1,7.9,98,0.00,,,0.01,Rainwise IP-100,2013-01-10 01:30:00,
2013-01-09 20:35:00,37.1,37.0,29.89,SSW,202,3.7,11.4,98,0.00,,,0.01,Rainwise IP-100,2013-01-10 01:35:00,
2013-01-09 20:40:00,37.1,37.0,29.88,SSE,157,3.0,7.9,99,0.00,,,0.01,Rainwise IP-100,2013-01-10 01:40:00,
2013-01-09 20:45:00,37.2,37.0,29.88,WSW,247,4.4,9.8,99,0.00,,,0.01,Rainwise IP-100,2013-01-10 01:45:00,
2013-01-09 20:50:00,37.2,37.0,29.88,WSW,247,2.6,9.6,99,0.00,,,0.01,Rainwise IP-100,2013-01-10 01:50:00,
2013-01-09 20:55:00,37.2,37.0,29.88,SSW,202,4.0,7.7,99,0.00,,,0.01,Rainwise IP-100,2013-01-10 01:55:00,
2013-01-09 21:00:00,37.1,37.0,29.88,SSW,202,2.3,6.8,99,0.00,,,0.01,Rainwise IP-100,2013-01-10 02:00:00,
2013-01-09 21:05:00,37.1,37.0,29.87,SW,225,3.7,8.2,99,0.00,,,0.01,Rainwise IP-100,2013-01-10 02:05:00,
2013-01-09 21:10:00,37.1,37.0,29.87,SSW,202,1.9,5.6,99,0.00,,,0.01,Rainwise IP-100,2013-01-10 02:10:00,
2013-01-09 21:15:00,37.1,37.0,29.87,SSW,202,3.3,7.7,99,0.00,,,0.01,Rainwise IP-100,2013-01-10 02:15:00,
2013-01-09 21:20:00,37.2,37.0,29.86,SW,225,2.1,7.9,99,0.00,,,0.01,Rainwise IP-100,2013-01-10 02:20:00,
2013-01-09 21:25:00,37.1,37.0,29.86,WSW,247,2.3,5.1,99,0.00,,,0.01,Rainwise IP-100,2013-01-10 02:25:00,
2013-01-09 21:30:00,37.1,37.0,29.86,SSW,202,1.9,4.7,99,0.00,,,0.01,Rainwise IP-100,2013-01-10 02:30:00,
2013-01-09 21:35:00,36.9,37.0,29.86,WSW,247,2.3,4.0,99,0.00,,,0.01,Rainwise IP-100,2013-01-10 02:35:00,
2013-01-09 21:40:00,36.6,37.0,29.85,SSW,202,3.7,6.5,99,0.00,,,0.01,Rainwise IP-100,2013-01-10 02:40:00,
2013-01-09 21:45:00,36.6,37.0,29.85,SW,225,3.7,7.0,99,0.00,,,0.01,Rainwise IP-100,2013-01-10 02:45:00,
2013-01-09 21:50:00,36.6,37.0,29.84,SW,225,2.6,6.5,99,0.00,,,0.01,Rainwise IP-100,2013-01-10 02:50:00,
2013-01-09 21:55:00,36.5,37.0,29.85,WSW,247,2.8,6.3,99,0.00,,,0.01,Rainwise IP-100,2013-01-10 02:55:00,
2013-01-09 22:00:00,36.3,36.0,29.85,SSW,202,0.0,6.1,99,0.00,,,0.01,Rainwise IP-100,2013-01-10 03:00:00,
2013-01-09 22:05:00,36.1,36.0,29.84,WSW,247,0.0,5.6,99,0.00,,,0.01,Rainwise IP-100,2013-01-10 03:05:00,
2013-01-09 22:10:00,35.8,36.0,29.84,SW,225,1.4,3.0,99,0.00,,,0.01,Rainwise IP-100,2013-01-10 03:10:00,
2013-01-09 22:15:00,35.7,36.0,29.84,WSW,247,2.1,4.2,99,0.00,,,0.01,Rainwise IP-100,2013-01-10 03:15:00,
2013-01-09 22:20:00,35.5,36.0,29.84,SW,225,0.0,4.9,99,0.00,,,0.01,Rainwise IP-100,2013-01-10 03:20:00,
2013-01-09 22:25:00,35.2,35.0,29.84,WSW,247,1.6,4.0,99,0.00,,,0.01,Rainwise IP-100,2013-01-10 03:25:00,
2013-01-09 22:30:00,34.9,35.0,29.84,WNW,292,3.0,3.0,99,0.00,,,0.01,Rainwise IP-100,2013-01-10 03:30:00,
2013-01-09 22:35:00,34.6,35.0,29.84,SSW,202,0.0,5.4,99,0.00,,,0.01,Rainwise IP-100,2013-01-10 03:35:00,
2013-01-09 22:40:00,34.3,35.0,29.84,WSW,247,0.0,4.9,99,0.00,,,0.01,Rainwise IP-100,2013-01-10 03:40:00,
2013-01-09 22:45:00,34.1,35.0,29.83,SW,225,1.6,4.4,99,0.00,,,0.01,Rainwise IP-100,2013-01-10 03:45:00,
2013-01-09 22:50:00,34.0,35.0,29.83,WNW,292,2.3,5.8,99,0.00,,,0.01,Rainwise IP-100,2013-01-10 03:50:00,
2013-01-09 22:55:00,33.9,35.0,29.83,WNW,292,0.0,7.9,99,0.00,,,0.01,Rainwise IP-100,2013-01-10 03:55:00,
2013-01-09 23:00:00,33.8,35.0,29.84,West,270,1.4,3.3,99,0.00,,,0.01,Rainwise IP-100,2013-01-10 04:00:00,
2013-01-09 23:05:00,33.6,35.0,29.83,WNW,292,1.2,4.9,98,0.00,,,0.01,Rainwise IP-100,2013-01-10 04:05:00,
2013-01-09 23:10:00,33.4,33.0,29.83,WSW,247,2.8,4.2,98,0.00,,,0.01,Rainwise IP-100,2013-01-10 04:10:00,
2013-01-09 23:15:00,33.2,33.0,29.83,WNW,292,2.3,5.8,98,0.00,,,0.01,Rainwise IP-100,2013-01-10 04:15:00,
2013-01-09 23:20:00,33.0,33.0,29.83,WSW,247,1.9,3.3,98,0.00,,,0.01,Rainwise IP-100,2013-01-10 04:20:00,
2013-01-09 23:25:00,32.8,32.0,29.83,WSW,247,0.0,5.1,97,0.00,,,0.01,Rainwise IP-100,2013-01-10 04:25:00,
2013-01-09 23:30:00,32.7,32.0,29.83,WSW,247,2.3,7.2,97,0.00,,,0.01,Rainwise IP-100,2013-01-10 04:30:00,
2013-01-09 23:35:00,32.6,32.0,29.83,WSW,247,2.3,5.6,97,0.00,,,0.01,Rainwise IP-100,2013-01-10 04:35:00,
2013-01-09 23:40:00,32.4,31.0,29.83,SW,225,5.4,5.4,97,0.00,,,0.01,Rainwise IP-100,2013-01-10 04:40:00,
2013-01-09 23:45:00,32.3,31.0,29.83,WSW,247,2.3,7.0,97,0.00,,,0.01,Rainwise IP-100,2013-01-10 04:45:00,
2013-01-09 23:50:00,32.2,31.0,29.83,WSW,247,1.4,4.4,97,0.00,,,0.01,Rainwise IP-100,2013-01-10 04:50:00,
2013-01-09 23:55:00,32.1,31.0,29.83,WSW,247,2.1,5.1,97,0.00,,,0.01,Rainwise IP-100,2013-01-10 04:55:00,